This demonstration page uses our WeatherBlox Daily Observations layout. Learn more.

Left ArrowRight Arrow

34.74481, -87.66753

Hourly Observations for May 3, 2019

Temp ( °F °C ) Dew Point ( °F °C ) Humidity (%) Winds ( mph kmh ) Pressure ( in mb ) Visibility ( mi km ) Precip ( " mm )
12:53 am 00:53 undefined 71 21.7 63 17.2 76 76 SE 7 11 29.95 1014 10 16 0.00 0.00
1:25 am 01:25 Mostly Clear with Nearby Thunderstorms 73 22.8 64 17.8 74 74 WSW 13 20 29.96 1015 9 14 0.03 0.76
1:40 am 01:40 Mostly Clear with Strong Thunderstorms 70 21.1 65 18.3 84 84 SSE 17 28 29.98 1015 4 6 0.17 4.32
1:53 am 01:53 Mostly Clear with Thunderstorms 70 21.1 66 18.9 87 87 SW 13 20 29.96 1015 10 16 0.18 4.57
2:05 am 02:05 Mostly Clear with Nearby Thunderstorms 70 21.1 66 18.9 87 87 WSW 9 15 29.97 1015 10 16 0.01 0.25
2:53 am 02:53 undefined 68 20 65 18.3 90 90 Calm 29.95 1014 10 16 0.03 0.76
3:53 am 03:53 Mostly Clear with Light Rain 68 20 65 18.3 90 90 SSW 7 11 29.95 1014 10 16 0.02 0.51
4:53 am 04:53 undefined 67 19.4 64 17.8 91 91 WSW 8 13 29.95 1014 10 16 0.00 0.03
5:53 am 05:53 undefined 67 19.4 64 17.8 91 91 S 6 9 29.96 1015 10 16 0.00 0.00
6:53 am 06:53 undefined 67 19.4 65 18.3 93 93 WSW 8 13 29.99 1016 10 16 0.00 0.00
7:53 am 07:53 undefined 68 20 64 17.8 87 87 W 10 17 30.00 1016 10 16 0.00 0.00
8:53 am 08:53 undefined 70 21.1 63 17.2 79 79 W 10 17 30.02 1017 10 16 0.00 0.00
9:53 am 09:53 undefined 71 21.7 63 17.2 76 76 W 12 19 30.02 1017 10 16 0.00 0.00
10:53 am 10:53 undefined 73 22.8 64 17.8 74 74 NW 7 11 30.01 1016 10 16 0.00 0.00
11:53 am 11:53 undefined 76 24.4 64 17.8 67 67 VRB 3 6 30.01 1016 10 16 0.00 0.00
12:53 pm 12:53 undefined 78 25.6 64 17.8 62 62 SW 7 11 29.99 1016 10 16 0.00 0.00
1:53 pm 13:53 undefined 79 26.1 63 17.2 58 58 W 10 17 29.99 1016 10 16 0.00 0.00
2:53 pm 14:53 undefined 78 25.6 63 17.2 60 60 W 8 13 29.98 1015 10 16 0.00 0.00
3:53 pm 15:53 undefined 77 25 63 17.2 62 62 WNW 7 11 29.97 1015 10 16 0.00 0.00
4:53 pm 16:53 undefined 76 24.4 63 17.2 64 64 WNW 7 11 29.95 1014 10 16 0.00 0.00
5:53 pm 17:53 undefined 76 24.4 64 17.8 67 67 NW 5 7 29.95 1014 10 16 0.00 0.00
6:53 pm 18:53 undefined 73 22.8 64 17.8 74 74 NW 6 9 29.94 1014 10 16 0.00 0.00
7:53 pm 19:53 undefined 71 21.7 63 17.2 76 76 Calm 29.94 1014 10 16 0.00 0.00
8:53 pm 20:53 undefined 69 20.6 64 17.8 84 84 Calm 29.95 1014 10 16 0.00 0.00
9:53 pm 21:53 undefined 68 20 64 17.8 87 87 Calm 29.96 1014 10 16 0.00 0.00
10:53 pm 22:53 undefined 69 20.6 64 17.8 84 84 Calm 29.93 1014 10 16 0.00 0.00
11:53 pm 23:53 undefined 68 20 64 17.8 87 87 Calm 29.93 1014 10 16 0.00 0.00

Powered by AerisWeather